Race Results for
Oakland Grand Grix
Oakland, CA, CA
(Event Information)
View By:
Criterium on 09/26/2010

Note: Ranking points are NOT upgrade points. An explanation of ranking points can be found here.


Men - Cat1/2/3 - Master - 35-99

 Place Points NameCity, StateTime USAC #BibTeam
1186.65John Trefethen   Danville, CA00:00.0 212376  270 HDR Racing p/b Lombardi Sports
2198.13Stephen Pelaez   San Francisco, CA00:00.0 64481  253 MRBerkeley.com p/b Bell Lap
3209.61Ryan Wong   San Jose, CA00:00.0 42770  267 Form Fitness
4221.09David Avila   Emerald Hills, CA00:00.0 55625  263 One Team Racing
5232.58Nabil Samaan   Fair Oaks, CA00:00.0 177518  264 Kinetics
6244.06Scott Derdenger   Benicia, CA00:00.0 55123  258 Echelon Velo
7255.54Chris Carscadden   Walnut Creek, CA00:00.0 165751  269 HDR Racing p/b Lombardi Sports
8267.02Robert Pasco   Belmont, CA00:00.0 136970  256 SAFEWAY/Bicycles Plus/PureRed
9278.50Lucas Paz   Richmond, CA00:00.0 150305  262 East Bay Velo Club
10289.98Patrick McClurg   Citrus Heights, CA00:00.0 48984  265 Vitamin Water / Folsom Bike
11301.46Chris Ott   San Jose, CA00:00.0 26920  268 HDR Cycling p/o Lombardi
12312.94Charles Pockell-Wilson   Martinez Ca00:00.0 52696  259 HDR Racing p/b Lombardi Sports
13324.43Craig Stewart   Orinda, CA00:00.0 205201  254 Taleo Racing
14335.91wolf vormwalde   San Jose, CA00:00.0 317192  261 Unattached
15347.39David Tu   Redwood City, CA00:00.0 36009  266 Truckee Bicycle Team
16358.87Roger Hogan   Fresno, CA00:00.0 285192  251 California Giant Cycling
17370.35John Cavanaugh   Lafayette, CA00:00.0 172586  257 HDR Racing p/b Lombardi Sports
18381.83Martin Dare (1 - Cat2)   Dublin, CA00:00.0 50620  260 East Bay Velo Club
19393.31Jason Kent   Walnut Creek, CA00:00.0 41826  252 Tieni Duro Junior Cycling Team
20404.79Murat Ozgur   Los Altos, CA00:00.0 41335  271 Squadra Ovest Cycling
DNSSantiago Bolon   San Jose, CA00:00.0 195384  250 Christian Cycling - Hammer Nut
DNPMark Vandenberghe   Lafayette, CA00:00.0 36393  255 Wells Fargo Racing Team
DNPThomas Carpenter   Oakland, CA00:00.0 169740  272 Kaiser Permanente/ Team Oaklan

Men - Cat 5 - Master - 35-99

 Place Points NameCity, StateTime USAC #BibTeam
1497.16Jeong Kim   San Jose, CA00:00.0 63591  750 Unattached
2Mike WHITLATCH   00:00.0  798 
3514.73Manuel Calero   San Pablo, CA00:00.0 307277  786 
4523.52Gonzalo Carrillo   Fremont, CA00:00.0 308032  787 Team Fremont/FFBC powered by C
5532.30Scott Moulton   Oakland, CA00:00.0 282186  793 East Bay Velo Club
6541.09Oscar Garcia   San Francisco, CA00:00.0 307898  789 
7549.87Garcia Blas   San Francisco, CA00:00.0 318192  788 
8Barry KRUPP   00:00.0  791 
9567.44Stefan Pommerenk   Hayward, CA00:00.0 325938  796 Peninsula Velo/Pomodoro
DNSGreg Nau   Santa Rosa, CA00:00.0 260305  794 Windsor Bicycle Center
DNSFrank Peavey   Windsor, CA00:00.0 318758  795 Windsor Bicycle Center
DNSVictor Romero   San Francisco, CA00:00.0 310213  797 
DNPCharles Himes   Santa Rosa, CA00:00.0 16249  790 Windsor Bicycle Center
DNPDaniel Miller   Fremont, CA00:00.0 72452  792 Team Fremont/FFBC

Men - Cat 4

 Place Points NameCity, StateTime USAC #BibTeam
1343.36Dylan Drummond   Walnut Creek, CA00:00.0 265912  803 Tieni Duro
2352.28Raoul MartinBlouin   Walnut Creek, CA00:00.0 303631  826 Lamorinda Cycling Club
3361.19Daniel Vigil   San Francisco, CA00:00.0 310724  823 Mission Cycling
4370.11Glenn Drummond   Walnut Creek, CA00:00.0 274369  804 
5379.02Michael Mulvihill   Durham, NC00:00.0 306964  814 Duke University
6387.94Oliver Weiss   Roseville, CA00:00.0 79603  825 Rio Strada Racing
7396.85Justin Leopold   Independence, MO00:00.0 299868  831 Unattached
8405.77Barrett Henson   San Luis Obispo, CA00:00.0 15881  809 Slo Nexus
9414.68Michael Heywood   San Francisco, CA00:00.0 268236  829 Kovarus/ABTA
10423.60Mackenzie Kelly   Santa Cruz, CA00:00.0 286297  832 Spokesman
11432.51Jason MartelDye   Sacramento, CA00:00.0 310948  812 bicycle chef pangea
12441.43Anthony Eng   El Cerrito, CA00:00.0 245065  805 Kaiser Permanente/ Team Oaklan
13450.34Eric Clauss   San Francisco, CA00:00.0 198040  830 Squadra Ovest Cycling
14459.26Sean Tompkins   Morganhill, CA00:00.0 300546  820 SJBC
15468.18Christopher Fan   Oakland, CA00:00.0 306494  806 Team Oakland/Kaiser Permanente
16477.09Mateo Ortega   Brisbane, CA00:00.0 255427  815 Team Roaring Mouse
17486.01Juan Raigoza   Redwood City, CA00:00.0 219477  817 Webcor/Alto Velo
18494.92kevin leong   Oakland, CA00:00.0 303230  811 
19503.84Rowel (Rob) Palisoc   Berkeley, CA00:00.0 195972  816 Team Oakland
20512.75Ron Meskis   Stockton, CA00:00.0 305400  813 Delta Velo
21521.67Mark Valentino   El Dorado Hills, CA00:00.0 112974  822 SJBC
22530.58Ryan Lenhardt   San Ramon, CA00:00.0 20890  810 Taleo Racing
23539.50Greg McCormac   Danville, CA00:00.0 171823  828 Wells Fargo Racing Team
24548.41Mark Sneed   Oakland, CA00:00.0 290626  819 Major Motion
DNSMarco Carvajal   San Francisco, CA00:00.0 305357  801 
DNSOscar Garcia   San Francisco, CA00:00.0 307898  807 
DNSJames Good   Oakland, CA00:00.0 254097  808 Taleo Racing
DNSMichael Tonkinson   Redwood City, CA00:00.0 186081  821 Metromint Cycling
DNSAndrew WARNER   00:00.0  824 
DNPFrank Ravizza   Brentwood, CA00:00.0 309418  818 VSRT/Livermore Cyclery
DNPEugene Kim   Huntington Beach, CA00:00.0 303809  827 Mission Cycling
DNFTimothy Bolton   Berkeley, CA00:00.0 305988  800 Kaiser Permanente / Team Oakla
DNFJ Clifford   Roseville, CA00:00.0 232661  802 Taleo Racing

Men - Cat 4 - Master - 35-99

 Place Points NameCity, StateTime USAC #BibTeam
1321.19Daniel Vigil   San Francisco, CA00:00.0 310724  682 Mission Cycling
2332.93Derrick Hemingway   San Jose, CA00:00.0 259077  665 SJBC
3344.66Ryan Lenhardt   San Ramon, CA00:00.0 20890  669 Taleo Racing
4356.39Steve Ball   Napa, CA00:00.0 59338  661 Eagle Racing Team
5368.12Rowel (Rob) Palisoc   Berkeley, CA00:00.0 195972  674 Team Oakland
6379.85Barrett Henson   San Luis Obispo, CA00:00.0 15881  666 Slo Nexus
7391.58Sean Tompkins   Morganhill, CA00:00.0 300546  681 SJBC
8403.31Paul Mitchell   Sacramento, CA00:00.0 220645  658 Davis
9415.05Anthony Eng   El Cerrito, CA00:00.0 245065  663 Kaiser Permanente/ Team Oaklan
10426.78Steve Stewart   Los Gatos, CA00:00.0 34158  679 Los Gatos
11438.51Robin McKinney   Lincoln, CA00:00.0 276168  685 Victory Velo/ProActive Persona
12450.24Daniel Lee   Petaluma, CA00:00.0 113898  668 windsor bicycle center
13461.97Matthew McNelley   Alamo, CA00:00.0 242212  684 Taleo Racing
14473.70Emilio Alvarez   Rutherford, CA00:00.0 306712  659 Eagle Racing Team
15485.43Osvaldo Tomatis   Elk Grove, CA00:00.0 220373  680 sport and spine pt
16497.17German Villa   San Lorenzo, CA00:00.0 224232  657 Berkeley Bicycle Club (BBC)
17508.90Chris Hernikl   Pleasant Hill, CA00:00.0 304027  667 Taleo Racing
18520.63Trevor Oldershaw   Albany, CA00:00.0 294096  673 BBC
19532.36Glen Augustine   Berkeley, CA00:00.0 2076  660 Berkeley Bicycle Club
20544.09Michael McGuire   Benicia, CA00:00.0 277047  671 Taleo Racing
21555.82Marty Panos   Moraga, CA00:00.0 264154  675 Taleo Racing
22567.56Benjamin Weekes   Oakland, CA00:00.0 109383  683 Major Motion
DNSJames Good   Oakland, CA00:00.0 254097  664 Taleo Racing
DNSAlex Peterson   Oakland, CA00:00.0 78081  676 Sofa Kings
DNPJ Clifford   Roseville, CA00:00.0 232661  662 Taleo Racing
DNPJuan Mariaca   Oakland, CA00:00.0 207670  670 unattach
DNPRome Mubarak   Oakland, CA00:00.0 284394  672 Major Motion Cycling Club
DNPRalph Rivas   Cudahy, CA00:00.0 282806  677 
DNPMark Sneed   Oakland, CA00:00.0 290626  678 Major Motion
DNPEric Clauss   San Francisco, CA00:00.0 198040  686 Squadra Ovest Cycling

Men - Cat 3

 Place Points NameCity, StateTime USAC #BibTeam
1253.45Jason Berens   Vacaville, CA00:00.0 296265  571 Bicycles Plus-Sierra Nevada
2260.15Nabil Samaan   Fair Oaks, CA00:00.0 177518  568 Kinetics
3266.85Kashy Ghazzagh   Santa Rosa, CA00:00.0 295719  576 Team Norcal Bike Sport
4273.55Matthew Valencia   Los Altos, CA00:00.0 255576  592 Team Specialized Racing Junior
5280.24Patrick Thomas   Aptos, CA00:00.0 294849  590 
6286.94Michael Boehme   Windsor, CA00:00.0 252576  572 Colavita Racing-Norcal
7293.64Joe McCrummen   Brentwood, CA00:00.0 23350  564 Taleo Racing
8300.34Scott Harrington   Sausalito, CA00:00.0 15164  562 Above Category Racing
9307.04Johannes Kratz   Cambridge, MA00:00.0 286729  581 Metromint Cycling
10313.74Mike Nissen   Livermore, CA00:00.0 296024  565 Taleo Racing
11320.43Dylan McReynolds   Berkeley, CA00:00.0 23832  561 Berkeley Bicycle Club (BBC)
12327.13Bill Laddish   Castro Valley, CA00:00.0 20105  582 NA
13333.83wolf vormwalde   San Jose, CA00:00.0 317192  569 Unattached
14340.53Joakim Vinberg   Cupertino, CA00:00.0 226014  570 Kovarus/ABTA
15347.23Mark Robertson   Oakland, CA00:00.0 237380  563 Lamorinda Cycling Club
16353.93Jason James   Oakland, CA00:00.0 119309  560 Squadra Ovest Cycling
17360.62Stephen Starr   Rohnert Park, CA00:00.0 305188  586 Team NorCal Bike Sport
18367.32Reese Levine   Orinda, CA00:00.0 263998  583 Tieni Duro
19374.02Kirk Evans   Sacramento, CA00:00.0 259534  574 Team Becher+
20380.72Greg Tripoli   Hanford, CA00:00.0 281420  591 Rubber Soul/CSC Racing Team
21387.42Steven Woo   Los Altos, CA00:00.0 38840  594 Third Pillar
22394.12Ian Swinson   Oakland, CA00:00.0 255539  589 Squadra-Ovest Cycling
23400.81Matthew Smith   Emeryville, CA00:00.0 228089  585 East Bay Velo Club
24407.51Sean Williams   Oakland, CA00:00.0 205876  595 East Bay Velo Club
25414.21Nick Kinney   Windsor, CA00:00.0 255460  580 Colavita Racing-Norcal
26420.91Jason Hanchett   Albany, CA00:00.0 255669  577 Berkeley Bicycle Club (BBC)
DNSSantiago Bolon   San Jose, CA00:00.0 195384  573 Christian Cycling - Hammer Nut
DNPWayne Cottrell   San Clemente, CA00:00.0 48613  559 Ogden One
DNPDan Tedford   Mountain View, CA00:00.0 196695  566 Squadra Ovest Cycling
DNPRoger Hogan   Fresno, CA00:00.0 285192  567 California Giant Cycling
DNPRoyce Fraley   Santa Rosa, CA00:00.0 267030  575 Team NorCal Bike Sport
DNPRichard Jones   Oakland, CA00:00.0 122040  578 Major Motion Cycling Club
DNPJason Kent   Walnut Creek, CA00:00.0 41826  579 Tieni Duro Junior Cycling Team
DNPMurat Ozgur   Los Altos, CA00:00.0 41335  584 Squadra Ovest Cycling
DNPCraig Stewart   Orinda, CA00:00.0 205201  587 Taleo Racing
DNPBernhard Stonas   Hayward, CA00:00.0 67169  588 BBC
DNPMark Vandenberghe   Lafayette, CA00:00.0 36393  593 Wells Fargo Racing Team

Men - Pro/Cat 1/2

 Place Points NameCity, StateTime USAC #BibTeam
1142.48Patrick Briggs   Oakland, CA00:00.0 4838  945 Yahoo Cycling Team
2150.39Collin Samaan (1 - Cat1)   Fair Oaks, CA00:00.0 196233  998 Wells Fargo Racing
3158.30James Wingert   San Diego, CA00:00.0 256481  946 Echelon Gran Fondo/Zteam
4166.21Eric Riggs   Antelope, CA00:00.0 191302  997 SF Velosport
5174.12Robert Evans   Scotts Valley, CA00:00.0 72893  961 RH Villa/IAS
6182.03Ethan Atkins   San Francisco, CA00:00.0 224998  991 Metromint Cycling
7189.94Kirk Carlsen   Orinda, CA00:00.0 138681  977 UCI PT: Garmin-Transitions
8197.84Rainier Schaefer   Sanfrancisco, CA00:00.0 304249  981 Godspeed
9205.75Sterling Magnell (2 - Cat1)   Santa Rosa, CA00:00.0 120588  988 McGuire Cycling Team
10213.66Dirk Himley   San Jose, CA00:00.0 86797  985 Echelon Gran Fondo/Zteam
11221.57Paul Penn   Hayward, CA00:00.0 57836  984 Wells Fargo Racing Team
12229.48Sean McBride   Oakland, CA00:00.0 190591  949 TEAM CLIF BAR Cycling
13237.39Elliot Jaramillo   Burlingame, CA00:00.0 179930  962 IAS/RH Villa/Montano Velo
14245.30Darren Basso   Belmont, CA00:00.0 130973  989 American Lung Association Cycl
15253.21Sean Smith   Oakland, CA00:00.0 204018  987 Squadra Ovest Cycling
16261.12Neil Bartley   San Jose, CA00:00.0 209268  983 Berkeley Bicycle Club (BBC)
17269.03John Bergmann   Albany, CA00:00.0 187522  992 Team Clif Bar
18276.94Lawrence Nolan   Fremont, CA00:00.0 26205  996 Team Specialized Racing Master
DNFEric Fischer (Cat2)   Berkeley, CA00:00.0 246309  947 TEAM CLIF BAR Cycling
DNFJim Riley   Oakalnd, CA00:00.0 287039  948 Godspeed Courier
DNFAaron Beardsley   Berkeley, CA00:00.0 188253  976 TEAM CLIF BAR Cycling
DNFGarrett Peck   Lafayette, CA00:00.0 213553  978 Davis Bike Club
DNFRussell White   Lafayette, CA00:00.0 236024  979 Davis Bike Club
DNFRobert Pasco   Belmont, CA00:00.0 136970  980 SAFEWAY/Bicycles Plus/PureRed
DNFMax Haines-Stiles (Cat2)   Palo Alto, CA00:00.0 238508  982 Metromint Cycling
DNFGreg Juneau (Cat2)   Milpitas, CA00:00.0 155436  986 Los Gatos Bicycle Racing Club
DNFMartin Acosta   East Palo Alto, CA00:00.0 291277  990 Alto Velo Racing Club
DNFDylan Clark (Cat2)   Auburn, CA00:00.0 243069  993 Webcor/ Alto Velo
DNFMark Fairman   San Francisco, CA00:00.0 270120  994 Metromint Cycling
DNFMichael Jacques   Portola Valley, CA00:00.0 72022  995 TEAM CLIF BAR Cycling
DNFTravis T   San Francisco, CA00:00.0 158451  999 Metromint Cycling

Men - Junior - 15-18

 Place Points NameCity, StateTime USAC #BibTeam
1326.19Ellis Anderson   Moraga, CA00:00.0 274504  108 Tieni Duro Junior Cycling Team
2344.51Reid Smith   Moraga, CA00:00.0 300086  120 Tieni Duro
3362.82Dylan Drummond   Walnut Creek, CA00:00.0 265912  111 Tieni Duro
4381.14Tyler Hanson   Orinda, CA00:00.0 257206  122 Tieni Duro Junior Cycling Team
5399.45Reese Levine   Orinda, CA00:00.0 263998  116 Tieni Duro
6417.77Adam Hodes   San Francisco, CA00:00.0 219706  114 Tieni Duro
7436.08Mackenzie Kelly   Santa Cruz, CA00:00.0 286297  115 Los Gatos
8Alberto SANTOS-DAVIDSON   00:00.0  119 
9Max FOGARTY   00:00.0  112 
10491.02Henry Nelson   Oakland, CA00:00.0 289117  117 Tieni Duro
11509.34Adam OCamb   Orinda Ca00:00.0 297136  118 Miramonte Cycling Club
12Mark TINGWALD   00:00.0  121 
13545.97Emily Anderson-Merritt   Berkeley, CA00:00.0 318856  109 Tieni Duro
14564.28Mitchell Graham   Oakland, CA00:00.0 303863  113 Teini Duro Jr Cycling Team
DNSNathan CARPENTER   00:00.0  110 

Women - Cat1/2/3

 Place Points NameCity, StateTime USAC #BibTeam
1250.76Mary Elizabeth Maroon   Sacramento, CA00:00.0 219555  459 Touchstone Climbing
2296.83Hanan Alves-Hyde   Albany, CA00:00.0 234966  460 Proman Hit Squad
3342.90Tracy Hogan   Portola Valley, CA00:00.0 246822  458 Third Pillar
4388.97Francesca Barsamian   Oakland, CA00:00.0 208596  456 Webcor/Alto Velo
5Esther AARTS   00:00.0  457 ROTCGroenewoub
DNSLauraleen Fenech   San Francisco, CA00:00.0 224272  430 Bici Sport

Women - Cat 4

 Place Points NameCity, StateTime USAC #BibTeam
1452.82Cybil Silberman   San Francisco, CA00:00.0 325510  563 
2470.04Shari Countryman   Foster City, CA00:00.0 304790  561 Team TIBCO II
3487.25Yuko Soneoka   Sacramento, CA00:00.0 305096  564 Early Bird Women's Development
4504.47Ellen Evans   Sacramento, CA00:00.0 310883  562 Davis Bike Club Race Team
5521.68Adrienne Belliveau   East Palo Alto, CA00:00.0 303420  559 Team Roaring Mouse
6538.90Kaya Cohn   El Cerrito, CA00:00.0 298978  560 Metromint Cycling
7556.11Emily Anderson-Merritt   Berkeley, CA00:00.0 318856  558 Tieni Duro

Report missing or incorrect license numbers

Volkswagen
Sierra NevadaBonk BreakerShimanoSpyUSACDFCUORE
UCI USA Cycling is the official governing body for all disciplines of competitive cycling in the United States. The 501c3, membership-based organization aims both to achieve sustained success in international cycling competition and to grow competitive cycling in America while delivering an exceptional customer experience.
View Children's Online Privacy Protection Policy
US Olympic Committee